Weather History for Keokuk, IA

Change the Weather History Date:

Friday, February 22, 2013

  Actual Average Record
Temperature  
Mean Temperature 30 °F -  
Max Temperature 33 °F 44 °F 66 °F (2000)
Min Temperature 26 °F 25 °F 1 °F (1963)
Degree Days  
Heating Degree Days 36    
Moisture  
Dew Point 21 °F    
Average Humidity 68    
Maximum Humidity 80    
Minimum Humidity 59    
Precipitation  
Precipitation 0.00 in - - ()
Sea Level Pressure  
Sea Level Pressure 29.88 in    
Wind  
Wind Speed 9 mph (WSW)    
Max Wind Speed 18 mph    
Max Gust Speed 22 mph    
Visibility 8 miles    
Events Snow    
Averages and records for this station are not official NWS values.
T = Trace of Precipitation, MM = Missing Value Source: NWS Daily Summary

Daily Weather History Graph

Daily Weather History Graph

Search for Another Location

Airport:

Trip Planner

Search our weather history database for the weather conditions in past years. The results will help you decide how hot, cold, wet, or windy it might be!

Date:

Astronomy

Feb. 22, 2013 Rise Set
Actual Time 6:49 AM CST 5:49 PM CST
Civil Twilight 6:21 AM CST 6:17 PM CST
Nautical Twilight 5:50 AM CST 6:48 PM CST
Astronomical Twilight 5:18 AM CST 7:20 PM CST
Moon 3:00 PM CST (2/22) 4:35 AM CST (2/22)
Length of Visible Light 11h 55m
Length of Day
11h 00m
Waxing Gibbous, 90% of the Moon is Illuminated
Feb 22
Waxing Gibbous
Feb 25
Full
Mar 4
Last Quarter
Mar 11
New
Mar 19
First Quarter

Hourly Weather History & Observations

Time (CST) Temp. Windchill Dew Point Humidity Pressure Visibility Wind Dir Wind Speed Gust Speed Precip Events Conditions
12:15 AM 30.2 °F 24.3 °F 23.0 °F 75% 29.82 in 2.0 mi East 5.8 mph - N/A Snow Light Snow
12:35 AM 30.2 °F 23.4 °F 23.0 °F 75% 29.81 in 2.0 mi East 6.9 mph - N/A Snow Light Snow
12:55 AM 30.2 °F 22.6 °F 24.8 °F 80% 29.79 in 2.5 mi East 8.1 mph - N/A Snow Light Snow
1:15 AM 30.2 °F 21.9 °F 24.8 °F 80% 29.79 in 2.5 mi East 9.2 mph - N/A Snow Light Snow
1:35 AM 30.2 °F 21.9 °F 24.8 °F 80% 29.79 in 3.0 mi East 9.2 mph - N/A Snow Light Snow
1:55 AM 30.2 °F 22.6 °F 24.8 °F 80% 29.79 in 2.5 mi ESE 8.1 mph - N/A Snow Light Snow
2:15 AM 30.2 °F 22.6 °F 24.8 °F 80% 29.78 in 2.5 mi ESE 8.1 mph - N/A Snow Light Snow
2:35 AM 30.2 °F 24.3 °F 24.8 °F 80% 29.78 in 2.5 mi ESE 5.8 mph - N/A Snow Light Snow
2:55 AM 30.2 °F - 24.8 °F 80% 29.77 in 1.8 mi Calm Calm - N/A Snow Light Snow
3:15 AM 30.2 °F - 24.8 °F 80% 29.76 in 1.8 mi Calm Calm - N/A Snow Light Snow
3:35 AM 30.2 °F - 24.8 °F 80% 29.76 in 2.0 mi Calm Calm - N/A Snow Light Snow
3:55 AM 32.0 °F - 24.8 °F 75% 29.75 in 3.0 mi Calm Calm - N/A Snow Light Snow
4:15 AM 32.0 °F 27.5 °F 24.8 °F 75% 29.75 in 5.0 mi SSE 4.6 mph - N/A   Overcast
4:35 AM 32.0 °F 28.7 °F 26.6 °F 80% 29.75 in 5.0 mi South 3.5 mph - N/A   Haze
4:55 AM 33.8 °F 29.6 °F 26.6 °F 75% 29.75 in 4.0 mi South 4.6 mph - N/A   Haze
5:15 AM 33.8 °F 28.6 °F 26.6 °F 75% 29.74 in 5.0 mi South 5.8 mph - N/A   Haze
5:35 AM 33.8 °F 27.7 °F 26.6 °F 75% 29.76 in 5.0 mi SSW 6.9 mph - N/A   Haze
5:55 AM 33.8 °F 27.0 °F 26.6 °F 75% 29.76 in 4.0 mi SSW 8.1 mph - N/A   Haze
6:15 AM 33.8 °F 25.8 °F 26.6 °F 75% 29.77 in 5.0 mi SW 10.4 mph - N/A Snow Light Snow
6:35 AM 33.8 °F 26.4 °F 26.6 °F 75% 29.77 in 7.0 mi WSW 9.2 mph - N/A Snow Light Snow
6:55 AM 33.8 °F 24.3 °F 26.6 °F 75% 29.77 in 10.0 mi WSW 13.8 mph - N/A Snow Light Snow
7:35 AM 32.0 °F 22.1 °F 23.0 °F 69% 29.79 in 10.0 mi West 13.8 mph - N/A   Overcast
7:55 AM 30.2 °F 19.3 °F 21.2 °F 69% 29.80 in 10.0 mi West 15.0 mph - N/A   Overcast
8:15 AM 30.2 °F 19.3 °F 21.2 °F 69% 29.82 in 10.0 mi West 15.0 mph 20.7 mph N/A   Overcast
8:35 AM 30.2 °F 19.3 °F 21.2 °F 69% 29.83 in 10.0 mi WSW 15.0 mph - N/A   Overcast
8:55 AM 30.2 °F 18.5 °F 21.2 °F 69% 29.84 in 10.0 mi West 17.3 mph - N/A   Overcast
9:15 AM 30.2 °F 20.2 °F 21.2 °F 69% 29.84 in 10.0 mi WSW 12.7 mph 19.6 mph N/A   Overcast
9:35 AM 30.2 °F 18.9 °F 21.2 °F 69% 29.85 in 10.0 mi West 16.1 mph - N/A   Overcast
9:55 AM 30.2 °F 19.3 °F 21.2 °F 69% 29.86 in 10.0 mi WSW 15.0 mph - N/A   Overcast
10:15 AM 30.2 °F 19.3 °F 21.2 °F 69% 29.86 in 10.0 mi WSW 15.0 mph - N/A   Overcast
10:35 AM 32.0 °F 21.2 °F 21.2 °F 64% 29.87 in 10.0 mi WSW 16.1 mph 19.6 mph N/A   Overcast
10:55 AM 32.0 °F 21.6 °F 21.2 °F 64% 29.88 in 10.0 mi WSW 15.0 mph - N/A   Unknown
11:15 AM 32.0 °F 21.2 °F 21.2 °F 64% 29.88 in 10.0 mi West 16.1 mph 19.6 mph N/A   Overcast
11:35 AM 32.0 °F 21.2 °F 21.2 °F 64% 29.89 in 10.0 mi WSW 16.1 mph 19.6 mph N/A   Overcast
12:15 PM 30.2 °F 19.3 °F 21.2 °F 69% 29.89 in 10.0 mi WSW 15.0 mph - N/A   Overcast
12:35 PM 32.0 °F 21.2 °F 19.4 °F 60% 29.89 in 10.0 mi West 16.1 mph - N/A   Overcast
12:55 PM 32.0 °F 22.1 °F 21.2 °F 64% 29.90 in 10.0 mi WSW 13.8 mph 20.7 mph N/A   Overcast
1:15 PM 32.0 °F 20.5 °F 21.2 °F 64% 29.89 in 10.0 mi WSW 18.4 mph 21.9 mph N/A   Overcast
1:35 PM 30.2 °F 20.2 °F 19.4 °F 64% 29.90 in 10.0 mi WSW 12.7 mph - N/A   Overcast
1:55 PM 30.2 °F 19.8 °F 19.4 °F 64% 29.91 in 10.0 mi WSW 13.8 mph - N/A   Overcast
2:15 PM 30.2 °F 19.8 °F 19.4 °F 64% 29.91 in 10.0 mi WSW 13.8 mph 17.3 mph N/A   Overcast
2:35 PM 30.2 °F 20.2 °F 19.4 °F 64% 29.91 in 10.0 mi WSW 12.7 mph - N/A   Overcast
2:55 PM 30.2 °F 21.3 °F 19.4 °F 64% 29.92 in 10.0 mi WSW 10.4 mph - N/A   Overcast
3:15 PM 32.0 °F 23.6 °F 21.2 °F 64% 29.92 in 10.0 mi WSW 10.4 mph - N/A   Overcast
3:35 PM 32.0 °F 23.0 °F 19.4 °F 60% 29.93 in 10.0 mi WSW 11.5 mph 18.4 mph N/A   Overcast
3:55 PM 32.0 °F 22.5 °F 19.4 °F 60% 29.93 in 10.0 mi WSW 12.7 mph - N/A   Overcast
4:15 PM 32.0 °F 22.5 °F 19.4 °F 60% 29.93 in 10.0 mi West 12.7 mph - N/A   Overcast
4:35 PM 32.0 °F 21.2 °F 19.4 °F 60% 29.94 in 10.0 mi WSW 16.1 mph - N/A   Overcast
4:55 PM 32.0 °F 21.6 °F 19.4 °F 60% 29.94 in 10.0 mi West 15.0 mph 18.4 mph N/A   Overcast
5:15 PM 32.0 °F 23.6 °F 19.4 °F 60% 29.95 in 10.0 mi West 10.4 mph - N/A   Overcast
5:35 PM 30.2 °F 21.9 °F 19.4 °F 64% 29.96 in 10.0 mi West 9.2 mph - N/A   Overcast
5:55 PM 30.2 °F 23.4 °F 19.4 °F 64% 29.96 in 10.0 mi West 6.9 mph - N/A   Overcast
6:15 PM 30.2 °F 22.6 °F 19.4 °F 64% 29.97 in 10.0 mi West 8.1 mph - N/A   Overcast
6:35 PM 30.2 °F 22.6 °F 19.4 °F 64% 29.98 in 10.0 mi West 8.1 mph - N/A   Overcast
6:55 PM 30.2 °F 20.8 °F 17.6 °F 60% 29.98 in 10.0 mi West 11.5 mph - N/A   Overcast
7:15 PM 30.2 °F 21.3 °F 17.6 °F 60% 29.99 in 10.0 mi West 10.4 mph - N/A   Overcast
7:35 PM 30.2 °F 21.9 °F 17.6 °F 60% 30.00 in 10.0 mi West 9.2 mph - N/A   Overcast
7:55 PM 30.2 °F 20.8 °F 17.6 °F 60% 30.00 in 10.0 mi West 11.5 mph - N/A   Overcast
8:15 PM 30.2 °F 21.9 °F 17.6 °F 60% 30.00 in 10.0 mi West 9.2 mph - N/A   Overcast
8:35 PM 30.2 °F 22.6 °F 17.6 °F 60% 30.01 in 10.0 mi West 8.1 mph - N/A   Overcast
8:55 PM 28.4 °F 21.2 °F 17.6 °F 64% 30.01 in 10.0 mi West 6.9 mph 10.4 mph N/A   Overcast
9:15 PM 28.4 °F 19.7 °F 17.6 °F 64% 30.01 in 10.0 mi West 9.2 mph - N/A   Overcast
9:35 PM 28.4 °F 19.7 °F 17.6 °F 64% 30.01 in 10.0 mi West 9.2 mph - N/A   Overcast
9:55 PM 28.4 °F 21.2 °F 17.6 °F 64% 30.01 in 10.0 mi West 6.9 mph - N/A   Overcast
10:15 PM 28.4 °F 19.7 °F 17.6 °F 64% 30.01 in 10.0 mi West 9.2 mph - N/A   Overcast
10:35 PM 28.4 °F 21.2 °F 17.6 °F 64% 30.01 in 10.0 mi WNW 6.9 mph - N/A   Overcast
10:55 PM 28.4 °F 20.4 °F 15.8 °F 59% 30.01 in 10.0 mi West 8.1 mph - N/A   Overcast
11:15 PM 28.4 °F 20.4 °F 15.8 °F 59% 30.01 in 10.0 mi West 8.1 mph - N/A   Overcast
11:35 PM 26.6 °F 15.2 °F 15.8 °F 64% 30.01 in 10.0 mi West 13.8 mph - N/A   Overcast
11:55 PM 26.6 °F 18.2 °F 15.8 °F 64% 30.01 in 10.0 mi West 8.1 mph - N/A   Overcast